Theta_e
307 308 308 308 309 310 310 311 312 314 316 317 318 317 316 316 316 318 319 325 327 328 326 327 331 333 336 336 337 335 336 335 333 336 336 333 335 334 334 335 333 338 340 338 340
308 308 308 308 309 309 310 310 312 314 316 317 317 316 315 316 318 321 328 327 327 326 326 328 329 335 334 336 335 334 333 330 332 334 334 333 336 336 336 334 340 343 339 338 336
308 308 307 308 308 309 310 310 311 314 316 317 318 316 315 316 326 326 329 327 327 325 325 328 331 336 338 336 335 333 330 329 332 335 333 333 337 336 335 336 343 343 338 335 334
307 307 308 308 308 309 310 310 311 314 316 317 318 316 316 317 329 328 326 325 326 325 326 329 332 336 336 337 335 337 334 335 335 333 333 337 340 342 340 340 337 339 335 333 333
307 307 308 308 309 309 310 311 312 314 316 318 318 317 316 322 323 328 327 326 325 325 326 327 329 335 334 336 335 335 335 335 336 335 336 341 343 344 344 340 336 335 334 333 332
308 308 308 308 308 309 310 311 313 315 316 318 318 317 323 324 328 331 327 326 326 328 330 326 327 330 334 335 335 335 335 336 336 338 337 341 341 345 344 342 341 337 334 333 332
309 308 308 309 309 309 311 312 316 318 318 319 318 316 323 323 331 331 330 331 332 331 329 330 325 326 329 337 335 336 336 336 336 339 340 337 340 340 345 344 342 341 335 333 332
311 310 309 309 309 310 312 316 318 320 319 318 318 317 320 327 328 328 331 332 332 332 331 330 329 325 328 333 335 338 338 340 337 338 339 339 347 346 345 345 346 344 342 336 332
310 310 309 309 310 310 315 319 322 322 320 318 319 321 320 328 328 330 332 332 332 332 331 330 328 326 326 330 330 333 337 342 341 340 344 345 349 348 342 342 342 342 343 341 340
310 310 310 310 310 311 318 320 320 321 323 322 321 324 324 327 329 330 330 330 330 329 327 326 323 326 323 326 331 335 336 338 338 345 343 344 348 345 344 340 341 341 343 341 338
309 310 310 310 311 312 319 320 314 315 318 319 322 323 324 325 326 329 330 331 330 328 328 326 327 328 328 327 330 334 334 337 340 343 345 344 343 344 344 348 346 344 335 333 335
309 309 310 310 311 316 315 317 316 318 317 319 318 320 323 324 324 327 329 328 329 328 327 327 328 328 328 328 332 334 336 342 341 341 341 345 344 341 340 341 339 344 339 335 335
309 309 310 310 312 315 316 319 318 318 317 320 320 322 322 325 326 327 326 326 328 327 328 328 327 328 327 327 330 332 333 336 339 341 341 342 345 341 340 341 342 342 340 338 336
308 309 309 310 311 311 317 317 318 318 322 324 323 323 323 324 326 327 327 326 327 328 327 328 327 327 326 327 328 329 333 338 339 337 342 339 344 344 343 346 342 340 340 338 335
307 308 309 309 310 311 316 317 318 321 332 328 324 324 322 324 326 327 328 327 327 328 327 327 326 326 327 326 327 328 335 337 339 339 338 344 344 346 343 346 343 342 340 339 335
306 307 309 309 309 313 315 318 319 326 333 325 322 321 322 323 324 325 328 327 327 327 326 327 327 328 327 327 326 328 334 332 334 335 341 341 345 346 345 345 345 339 336 338 337
305 308 309 309 312 316 319 319 325 331 331 321 320 320 320 322 324 326 328 327 326 326 327 326 327 327 328 328 327 329 331 334 335 338 343 339 340 340 340 343 342 340 338 337 336
305 308 310 313 315 318 319 324 333 333 332 325 320 318 320 322 323 326 328 327 327 327 326 327 328 328 330 332 329 333 331 332 339 340 339 340 346 342 340 342 343 340 338 337 333
307 310 315 317 320 320 318 328 331 333 330 328 324 319 319 320 324 324 326 327 326 325 327 328 329 328 334 333 332 334 334 331 335 335 340 342 343 341 339 341 342 343 341 338 334
309 313 319 321 319 321 319 324 329 331 328 327 330 329 322 319 320 323 324 327 328 328 326 328 328 329 335 331 331 333 333 331 332 339 346 345 345 339 343 343 344 342 342 339 332
313 315 321 322 320 315 315 322 326 325 325 327 330 330 331 325 320 322 325 326 329 329 325 326 325 327 334 334 333 331 332 335 332 336 343 348 343 336 340 342 336 335 337 334 330
312 314 323 322 316 315 318 322 324 326 329 328 326 330 335 334 325 322 326 327 329 328 331 332 328 330 333 333 332 334 337 334 332 339 338 340 341 339 341 341 338 335 336 334 328
306 314 320 322 318 316 318 323 326 329 329 329 332 332 332 331 328 331 334 332 329 330 331 333 331 342 339 332 330 335 334 334 333 330 336 338 341 338 339 339 336 333 334 332 328
308 319 318 316 316 320 321 321 328 326 329 328 329 330 332 336 334 340 340 334 335 334 335 335 336 339 338 335 332 337 335 332 330 333 336 339 341 341 339 338 337 335 333 330 331
310 316 320 323 324 325 326 323 325 327 329 327 328 333 336 336 337 340 340 337 337 336 333 338 340 337 336 336 337 335 334 333 335 336 343 342 341 338 336 335 336 336 332 333 336
308 318 317 319 319 325 325 329 329 329 330 329 332 335 336 339 338 336 340 335 334 332 332 333 334 336 333 338 337 335 337 336 336 337 341 340 344 337 336 338 338 337 338 336 335
315 314 316 319 320 321 322 325 329 327 325 329 334 336 337 338 336 335 333 334 334 334 331 335 337 335 336 339 337 335 342 338 339 345 343 346 343 338 337 336 335 334 334 336 336
Wind_Speed
29 28 27 26 26 26 26 24 23 22 21 20 16 13 11 12 13 11 6 7 5 6 8 6 9 14 6 3 6 2 2 4 8 6 5 4 5 4 4 6 2 3 6 12 26
28 29 28 27 26 26 26 25 23 21 19 19 16 12 11 13 13 11 16 14 12 7 5 4 6 5 3 4 2 2 5 6 7 6 7 5 7 9 6 5 4 8 12 20 25
28 29 30 28 27 27 26 25 23 20 18 19 15 12 11 12 4 6 3 8 9 6 7 4 1 1 2 2 1 1 1 5 5 3 5 10 3 4 15 6 15 18 12 11 18
30 30 31 30 29 27 27 26 23 18 17 18 14 12 11 3 2 5 4 8 8 5 6 8 3 5 5 6 2 2 7 5 6 7 6 3 3 8 5 2 12 15 15 7 8
32 31 30 31 30 29 28 27 22 17 17 17 11 11 4 2 8 9 7 8 8 5 5 0 3 3 6 1 4 5 4 2 4 7 7 10 16 12 20 14 7 11 9 9 8
32 33 32 31 31 31 28 27 21 17 17 15 9 10 1 2 5 5 10 10 9 7 5 8 8 10 4 2 3 7 4 1 5 5 9 9 5 15 16 14 5 8 9 10 10
34 35 33 33 33 32 30 26 20 20 16 11 5 5 0 11 4 6 8 10 10 13 5 17 10 5 5 2 4 2 5 12 7 1 5 8 7 7 4 3 10 13 10 10 10
35 36 36 35 34 33 31 25 28 18 8 4 3 1 6 7 10 14 16 13 16 20 20 25 22 7 7 0 5 4 5 3 8 3 7 3 4 5 4 5 12 16 13 8 8
35 37 37 35 35 35 29 31 12 3 1 1 1 3 8 7 6 15 16 12 14 16 20 18 2 3 1 6 4 3 3 3 4 2 6 9 2 13 12 12 8 10 12 10 8
35 37 39 36 33 33 28 19 8 5 4 3 1 1 5 5 8 9 17 16 6 7 8 8 6 4 5 4 5 7 3 2 4 4 19 16 13 10 7 6 9 10 10 2 9
35 36 39 37 33 25 23 15 9 6 4 5 4 3 9 14 20 7 10 9 3 4 5 4 6 6 14 7 7 5 0 7 2 10 7 9 4 4 4 5 4 14 5 8 13
36 36 38 38 30 14 22 5 7 6 6 7 12 5 20 11 6 7 4 3 1 6 5 7 3 7 12 14 6 6 9 4 3 2 6 4 6 4 4 2 3 11 6 10 10
36 35 37 38 21 10 16 14 27 22 2 7 6 4 6 6 4 4 3 1 6 4 2 2 8 9 8 10 5 1 7 6 6 4 5 7 2 3 2 6 5 5 7 9 11
35 34 36 40 6 26 11 24 24 22 4 6 5 6 4 5 4 6 3 6 1 6 2 4 6 7 13 6 1 1 4 9 11 4 3 1 2 7 5 8 4 6 7 7 5
35 35 36 34 18 10 15 24 26 2 3 4 4 4 8 8 3 2 4 4 9 2 4 6 7 11 11 6 2 8 4 10 5 5 6 4 6 7 7 5 5 13 10 9 3
36 35 39 18 18 12 20 25 4 5 1 2 6 6 5 3 4 3 2 6 2 1 3 5 4 4 5 10 6 5 8 8 5 3 4 2 7 5 5 1 6 12 13 10 7
36 34 36 18 6 16 19 6 5 3 5 4 5 5 7 5 4 2 2 2 2 4 5 7 6 6 1 8 7 6 6 4 5 5 2 3 5 5 4 5 12 14 13 10 7
37 35 26 22 13 16 10 5 4 4 4 2 3 4 8 6 6 3 3 1 3 4 1 2 9 5 6 4 4 4 7 5 3 2 2 6 2 2 7 9 14 18 12 6 7
36 27 18 1 2 4 5 4 5 4 8 6 5 4 3 5 6 6 7 6 7 8 7 4 6 2 5 1 2 3 5 2 6 4 4 3 1 5 7 9 12 11 8 9 8
25 14 14 3 8 3 5 4 4 4 8 4 3 2 3 6 7 8 7 6 8 9 6 5 2 3 4 4 4 5 2 4 4 3 2 4 4 3 8 12 10 13 12 14 6
9 4 4 11 10 5 2 6 6 10 9 7 1 3 6 5 10 7 8 8 6 5 9 5 4 6 2 1 3 4 2 6 4 4 5 4 5 7 8 10 7 10 9 7 7
7 2 3 7 3 1 2 4 6 12 17 6 2 2 3 2 4 8 7 6 6 7 3 1 5 1 5 4 5 3 3 5 5 2 2 4 5 6 9 7 6 9 8 9 9
3 4 5 3 1 2 6 6 5 5 7 4 4 2 4 5 5 3 2 1 4 4 6 3 2 3 10 6 6 3 2 2 4 3 3 5 5 2 4 9 8 9 14 9 7
2 3 4 4 1 3 4 6 5 8 7 4 5 3 5 7 7 3 7 8 7 8 5 7 3 6 5 7 4 3 9 5 6 4 2 2 2 5 4 7 10 10 10 8 4
1 4 2 3 3 3 3 4 7 4 4 8 4 2 2 4 3 4 6 7 7 9 3 4 3 3 4 6 3 2 9 13 13 2 6 3 2 5 5 6 6 5 8 6 3
1 3 5 4 5 5 2 3 3 2 1 9 4 5 6 4 4 6 3 3 3 4 4 5 1 3 6 4 3 2 6 5 4 5 8 8 1 3 2 1 8 7 6 6 5
5 5 3 5 6 3 2 6 7 6 6 4 5 4 6 1 5 2 5 3 4 1 2 3 2 3 3 3 1 3 2 4 4 7 6 4 3 0 4 7 5 6 6 5 5
Wind_Direction
1 359 1 0 358 355 354 353 352 352 353 352 348 340 330 324 316 300 256 241 270 270 266 258 269 280 204 234 183 160 79 235 187 174 201 210 136 215 154 122 53 172 131 157 173
358 356 357 357 355 352 351 349 348 347 348 350 346 342 334 328 319 265 274 259 270 266 257 335 352 23 322 170 267 152 144 241 193 165 167 216 168 164 122 115 68 85 105 142 149
357 354 353 353 351 348 346 345 343 341 343 345 344 341 334 329 334 261 289 229 245 251 297 310 218 84 211 310 195 223 113 270 12 248 124 181 235 180 143 161 158 149 154 146 145
359 353 349 350 348 345 342 341 339 337 336 338 338 337 329 330 274 304 189 192 233 269 304 334 39 10 343 332 299 341 37 30 327 358 4 95 21 61 29 200 160 151 155 150 149
355 353 348 347 346 341 338 336 336 334 331 333 327 334 331 28 254 267 223 221 234 247 255 210 351 95 272 39 7 39 327 263 289 349 96 66 46 74 41 13 126 131 153 158 168
352 352 349 346 343 338 334 334 332 331 325 325 319 329 74 270 252 238 212 229 233 233 229 177 202 208 258 6 134 222 210 248 74 92 59 82 41 75 6 335 2 155 181 185 186
349 352 349 345 340 336 334 331 330 324 315 311 305 331 86 233 225 222 231 244 257 255 236 270 255 168 195 173 272 321 27 340 90 274 118 108 31 61 46 310 41 348 211 197 197
347 350 347 344 342 337 333 330 324 313 308 296 283 265 244 279 284 252 247 262 275 273 269 292 286 258 154 151 3 41 44 51 350 338 39 13 339 212 21 58 59 351 337 306 215
347 346 345 345 343 338 333 334 344 353 360 269 292 165 268 313 231 242 230 246 286 307 309 312 42 277 162 148 20 329 231 121 323 39 120 109 347 324 347 17 28 14 326 311 320
346 344 344 344 343 340 340 350 23 104 90 77 214 11 287 254 247 272 246 247 263 296 352 19 34 337 13 97 232 263 281 174 173 73 105 114 178 169 85 327 320 303 258 188 336
343 343 342 342 342 343 348 3 18 355 22 219 223 268 287 305 313 269 211 207 304 30 323 351 6 324 306 246 190 209 74 132 96 127 73 135 115 302 101 241 293 278 203 303 306
341 341 341 340 341 344 348 1 341 298 312 247 239 252 268 259 300 280 211 139 247 285 356 8 303 277 340 356 173 107 119 119 92 66 77 210 161 252 97 36 295 278 325 299 286
339 340 340 339 341 347 339 355 356 353 28 292 216 188 231 150 228 256 82 336 220 286 332 174 269 319 5 353 37 45 145 188 144 133 71 156 72 64 18 183 236 236 255 277 265
337 338 339 340 354 334 306 346 347 340 53 274 198 249 218 166 272 239 248 183 238 237 274 274 295 342 337 332 297 335 194 111 131 123 113 146 343 2 310 328 25 298 304 295 317
332 334 333 337 309 307 320 336 332 33 58 156 184 204 166 154 207 272 280 142 214 278 84 263 315 323 323 265 8 240 46 128 116 95 107 334 69 292 321 347 278 299 303 334 269
328 329 329 327 306 293 331 326 343 39 351 220 158 172 127 211 263 288 58 40 93 42 330 241 243 230 234 290 250 193 84 44 56 75 58 213 128 281 256 266 309 274 292 300 228
324 324 320 304 268 315 323 356 43 103 323 194 186 146 173 196 255 200 283 13 113 15 339 332 284 288 306 347 308 95 59 12 14 20 187 330 87 213 220 184 222 255 278 301 245
322 323 316 291 292 298 331 50 60 259 292 3 142 105 174 171 238 225 128 194 257 121 112 260 333 26 319 95 262 89 135 145 184 177 180 356 143 204 216 218 243 250 255 276 301
326 325 308 329 204 271 64 63 219 279 324 11 45 89 255 219 168 186 194 211 226 172 169 180 264 352 50 8 45 344 44 141 101 61 77 274 354 327 278 252 263 270 294 273 256
327 316 293 89 184 128 68 238 258 272 321 28 79 140 259 241 162 162 195 223 241 192 145 251 317 315 317 56 3 106 165 35 19 104 141 308 292 222 255 264 258 263 256 265 236
329 349 295 152 162 52 170 243 292 294 4 332 303 299 258 223 199 183 212 254 213 263 156 169 118 295 16 305 201 330 55 53 109 135 145 168 255 226 236 224 249 233 231 268 229
353 328 83 221 46 73 223 226 314 302 312 265 266 251 280 262 234 191 210 232 198 161 110 15 131 51 265 314 230 149 181 137 117 237 199 149 258 233 245 254 240 269 275 286 224
347 268 318 186 176 300 295 293 266 299 301 331 296 30 287 348 39 45 170 283 72 85 146 184 15 26 342 353 6 12 237 181 115 84 189 120 256 236 287 287 286 278 282 305 246
27 339 316 35 101 112 312 284 309 313 291 240 263 15 10 42 13 31 13 18 41 28 28 83 107 141 184 234 213 354 31 75 135 91 244 21 24 339 284 270 296 287 260 263 355
86 265 270 305 322 318 238 278 297 313 329 342 308 40 359 31 45 29 40 3 41 352 36 88 110 129 220 40 43 26 92 77 62 270 110 267 355 293 264 248 234 59 81 107 317
66 32 343 293 303 298 222 248 265 308 269 314 15 309 80 127 173 201 140 111 233 337 50 359 355 47 353 64 17 104 64 89 122 175 114 130 171 272 344 86 40 41 46 17 350
348 346 106 277 322 349 10 312 321 348 294 239 268 96 73 333 148 104 345 120 170 58 65 54 64 66 277 8 37 338 17 18 331 35 125 151 189 53 40 65 45 32 43 21 348